Weather History for KBBB - December, 2013

Change the Weather History Date:

Sunday, December 29, 2013

  Actual Average Record
Temperature  
Mean Temperature -12 °F -  
Max Temperature -5 °F 19 °F 60 °F (1999)
Min Temperature -18 °F 4 °F -18 °F (2013)
Degree Days  
Heating Degree Days 76    
Moisture  
Dew Point -19 °F    
Average Humidity 72    
Maximum Humidity 84    
Minimum Humidity 59    
Precipitation  
Precipitation 0.00 in - - ()
Sea Level Pressure  
Sea Level Pressure 30.31 in    
Wind  
Wind Speed 18 mph (North)    
Max Wind Speed 37 mph    
Max Gust Speed 41 mph    
Visibility 10 miles    
Events      
Averages and records for this station are not official NWS values.
T = Trace of Precipitation, MM = Missing Value Source: NWS Daily Summary

Daily Weather History Graph

Daily Weather History Graph

Search for Another Location

Airport or City:

Trip Planner

Search our weather history database for the weather conditions in past years. The results will help you decide how hot, cold, wet, or windy it might be!

Date:

Astronomy

Dec. 29, 2013 Rise Set
Actual Time 8:01 AM CST 4:48 PM CST
Civil Twilight 7:27 AM CST 5:22 PM CST
Nautical Twilight 6:50 AM CST 5:59 PM CST
Astronomical Twilight 6:14 AM CST 6:35 PM CST
Moon 4:42 AM CST (12/29) 2:30 PM CST (12/29)
Length of Visible Light 9h 54m
Length of Day
8h 46m
Waning Crescent, 11% of the Moon is Illuminated
Dec 29
Waning Crescent
Jan 1
New
Jan 7
First Quarter
Jan 15
Full
Jan 23
Last Quarter

Hourly Weather History & Observations

Time (CST) Temp. Windchill Dew Point Humidity Pressure Visibility Wind Dir Wind Speed Gust Speed Precip Events Conditions
12:12 AM -7.6 °F -38.4 °F -13.0 °F 77% 30.22 in 10.0 mi North 36.8 mph 41.4 mph N/A   Mostly Cloudy
12:32 AM -7.6 °F -36.1 °F -13.0 °F 77% 30.22 in 10.0 mi North 29.9 mph 36.8 mph N/A   Scattered Clouds
12:53 AM -7.6 °F -36.6 °F -14.8 °F 71% 30.23 in 10.0 mi North 31.1 mph 36.8 mph N/A   Scattered Clouds
1:12 AM -9.4 °F -36.8 °F -16.6 °F 71% 30.24 in 10.0 mi North 25.3 mph 40.3 mph N/A   Scattered Clouds
1:32 AM -9.4 °F -36.8 °F -16.6 °F 71% 30.25 in 10.0 mi North 25.3 mph 40.3 mph N/A   Scattered Clouds
1:53 AM -11.2 °F -38.2 °F -16.6 °F 77% 30.28 in 10.0 mi North 23.0 mph 32.2 mph N/A   Clear
2:12 AM -11.2 °F -39.2 °F -18.4 °F 70% 30.28 in 10.0 mi North 25.3 mph 31.1 mph N/A   Scattered Clouds
2:33 AM -11.2 °F -36.4 °F -18.4 °F 70% 30.29 in 10.0 mi North 19.6 mph 25.3 mph N/A   Clear
2:52 AM -11.2 °F -39.7 °F -18.4 °F 70% 30.30 in 10.0 mi North 26.5 mph 32.2 mph N/A   Scattered Clouds
3:12 AM -13.0 °F -38.8 °F -18.4 °F 77% 30.31 in 10.0 mi North 19.6 mph 29.9 mph N/A   Clear
3:33 AM -13.0 °F -39.4 °F -18.4 °F 77% 30.32 in 10.0 mi North 20.7 mph 27.6 mph N/A   Scattered Clouds
3:52 AM -14.8 °F -42.4 °F -20.2 °F 77% 30.32 in 10.0 mi North 21.9 mph 27.6 mph N/A   Scattered Clouds
4:12 AM -14.8 °F -41.8 °F -20.2 °F 77% 30.32 in 10.0 mi North 20.7 mph 28.8 mph N/A   Clear
4:33 AM -14.8 °F -42.9 °F -20.2 °F 77% 30.33 in 10.0 mi North 23.0 mph 29.9 mph N/A   Scattered Clouds
4:52 AM -14.8 °F -39.8 °F -20.2 °F 77% 30.33 in 10.0 mi North 17.3 mph 27.6 mph N/A   Clear
5:12 AM -14.8 °F -41.8 °F -20.2 °F 77% 30.34 in 10.0 mi North 20.7 mph 32.2 mph N/A   Clear
5:33 AM -14.8 °F -39.1 °F -20.2 °F 77% 30.34 in 10.0 mi North 16.1 mph - N/A   Clear
5:52 AM -14.8 °F -41.8 °F -20.2 °F 77% 30.35 in 10.0 mi North 20.7 mph 25.3 mph N/A   Clear
6:12 AM -14.8 °F -41.8 °F -22.0 °F 70% 30.35 in 10.0 mi North 20.7 mph 29.9 mph N/A   Clear
6:33 AM -14.8 °F -40.5 °F -22.0 °F 70% 30.35 in 10.0 mi North 18.4 mph 24.2 mph N/A   Clear
6:52 AM -14.8 °F -39.8 °F -22.0 °F 70% 30.36 in 10.0 mi North 17.3 mph - N/A   Clear
7:12 AM -14.8 °F -41.2 °F -22.0 °F 70% 30.36 in 10.0 mi North 19.6 mph 24.2 mph N/A   Clear
7:33 AM -14.8 °F -40.5 °F -22.0 °F 70% 30.37 in 10.0 mi North 18.4 mph - N/A   Clear
7:52 AM -14.8 °F -39.8 °F -22.0 °F 70% 30.37 in 10.0 mi North 17.3 mph 23.0 mph N/A   Clear
8:12 AM -16.6 °F -42.9 °F -22.0 °F 76% 30.38 in 10.0 mi North 18.4 mph 23.0 mph N/A   Clear
8:33 AM -14.8 °F -38.3 °F -22.0 °F 70% 30.39 in 10.0 mi North 15.0 mph - N/A   Clear
8:53 AM -14.8 °F -36.6 °F -22.0 °F 70% 30.39 in 10.0 mi North 12.7 mph - N/A   Clear
9:12 AM -14.8 °F -37.5 °F -20.2 °F 77% 30.39 in 10.0 mi North 13.8 mph - N/A   Clear
9:33 AM -13.0 °F -36.8 °F -20.2 °F 70% 30.39 in 10.0 mi North 16.1 mph 19.6 mph N/A   Clear
9:52 AM -13.0 °F -35.2 °F -20.2 °F 70% 30.40 in 10.0 mi North 13.8 mph - N/A   Clear
10:12 AM -11.2 °F -31.1 °F -20.2 °F 64% 30.40 in 10.0 mi North 11.5 mph - N/A   Clear
10:33 AM -11.2 °F -33.7 °F -18.4 °F 70% 30.41 in 10.0 mi North 15.0 mph - N/A   Clear
10:52 AM -11.2 °F -32.9 °F -18.4 °F 70% 30.40 in 10.0 mi North 13.8 mph - N/A   Clear
11:12 AM -9.4 °F -27.9 °F -18.4 °F 65% 30.40 in 10.0 mi North 10.4 mph - N/A   Clear
11:32 AM -9.4 °F -32.8 °F -18.4 °F 65% 30.39 in 10.0 mi North 17.3 mph - N/A   Clear
11:52 AM -9.4 °F -31.4 °F -18.4 °F 65% 30.38 in 10.0 mi North 15.0 mph - N/A   Clear
12:13 PM -9.4 °F -28.9 °F -18.4 °F 65% 30.37 in 10.0 mi North 11.5 mph - N/A   Clear
12:32 PM -7.6 °F -26.6 °F -18.4 °F 59% 30.36 in 10.0 mi North 11.5 mph - N/A   Clear
12:52 PM -7.6 °F -25.7 °F -18.4 °F 59% 30.36 in 10.0 mi North 10.4 mph - N/A   Clear
1:13 PM -7.6 °F -28.3 °F -16.6 °F 65% 30.36 in 10.0 mi NNW 13.8 mph - N/A   Clear
1:32 PM -7.6 °F -28.3 °F -16.6 °F 65% 30.35 in 10.0 mi NNW 13.8 mph - N/A   Clear
1:52 PM -5.8 °F -25.2 °F -16.6 °F 60% 30.34 in 10.0 mi NNW 12.7 mph - N/A   Clear
2:13 PM -5.8 °F -24.4 °F -16.6 °F 60% 30.34 in 10.0 mi North 11.5 mph - N/A   Clear
2:32 PM -7.6 °F -29.1 °F -16.6 °F 65% 30.34 in 10.0 mi North 15.0 mph 18.4 mph N/A   Clear
2:52 PM -5.8 °F -26.0 °F -16.6 °F 60% 30.33 in 10.0 mi NNW 13.8 mph - N/A   Clear
3:13 PM -7.6 °F -25.7 °F -16.6 °F 65% 30.32 in 10.0 mi NNW 10.4 mph - N/A   Clear
3:32 PM -7.6 °F -25.7 °F -16.6 °F 65% 30.31 in 10.0 mi NNW 10.4 mph - N/A   Clear
3:52 PM -7.6 °F -24.6 °F -16.6 °F 65% 30.30 in 10.0 mi NNW 9.2 mph - N/A   Clear
4:12 PM -7.6 °F -20.6 °F -16.6 °F 65% 30.30 in 10.0 mi NNW 5.8 mph - N/A   Clear
4:32 PM -7.6 °F -18.8 °F -16.6 °F 65% 30.29 in 10.0 mi NNW 4.6 mph - N/A   Clear
4:53 PM -9.4 °F -20.9 °F -16.6 °F 71% 30.29 in 10.0 mi North 4.6 mph - N/A   Clear
5:12 PM -11.2 °F - -16.6 °F 77% 30.28 in 10.0 mi Calm Calm - N/A   Clear
5:32 PM -11.2 °F - -16.6 °F 77% 30.28 in 10.0 mi Calm Calm - N/A   Clear
5:52 PM -11.2 °F - -16.6 °F 77% 30.27 in 10.0 mi Calm Calm - N/A   Clear
6:12 PM -11.2 °F - -18.4 °F 70% 30.26 in 10.0 mi Calm Calm - N/A   Clear
6:33 PM -11.2 °F -20.6 °F -18.4 °F 70% 30.27 in 10.0 mi SW 3.5 mph - N/A   Clear
6:52 PM -14.8 °F - -18.4 °F 84% 30.26 in 10.0 mi Calm Calm - N/A   Clear
7:12 PM -14.8 °F - -18.4 °F 84% 30.26 in 10.0 mi Calm Calm - N/A   Clear
7:33 PM -16.6 °F -26.8 °F -20.2 °F 84% 30.25 in 10.0 mi SW 3.5 mph - N/A   Clear
7:52 PM -14.8 °F - -18.4 °F 84% 30.26 in 10.0 mi Calm Calm - N/A   Clear
8:12 PM -14.8 °F - -20.2 °F 77% 30.25 in 10.0 mi Calm Calm - N/A   Clear
8:33 PM -16.6 °F - -20.2 °F 84% 30.25 in 10.0 mi Calm Calm - N/A   Clear
8:52 PM -16.6 °F - -20.2 °F 84% 30.24 in 10.0 mi Calm Calm - N/A   Clear
9:13 PM -16.6 °F - -20.2 °F 84% 30.23 in 10.0 mi Calm Calm - N/A   Clear
9:33 PM -18.4 °F -28.9 °F -23.8 °F 76% 30.23 in 10.0 mi SW 3.5 mph - N/A   Clear
9:52 PM -18.4 °F - -23.8 °F 76% 30.23 in 10.0 mi Calm Calm - N/A   Clear
10:13 PM -18.4 °F - -23.8 °F 76% 30.23 in 10.0 mi Calm Calm - N/A   Clear
10:33 PM -18.4 °F -28.9 °F -25.6 °F 70% 30.22 in 10.0 mi South 3.5 mph - N/A   Clear
10:53 PM -18.4 °F -31.4 °F -23.8 °F 76% 30.22 in 10.0 mi SSW 4.6 mph - N/A   Clear
11:13 PM -16.6 °F -26.8 °F -20.2 °F 84% 30.22 in 10.0 mi South 3.5 mph - N/A   Clear
11:32 PM -14.8 °F -24.8 °F -18.4 °F 84% 30.21 in 10.0 mi South 3.5 mph - N/A   Clear
11:53 PM -14.8 °F -24.8 °F -20.2 °F 77% 30.21 in 10.0 mi South 3.5 mph - N/A   Clear